This demonstration page uses our WeatherBlox Daily Observations layout. Learn more.

Left ArrowRight Arrow

Hourly Observations for August 25, 2018

Temp ( °F °C ) Dew Point ( °F °C ) Humidity (%) Winds ( mph kmh ) Pressure ( in mb ) Visibility ( mi km ) Precip ( " mm )
12:15 am 00:15 Clear 63 17 63 17 100 100 Calm 30.27 1025 10 16.0934 0 0
12:35 am 00:35 Clear 63 17 63 17 100 100 Calm 30.27 1025 10 16.0934 0 0
12:55 am 00:55 Clear 61 16 61 16 100 100 Calm 30.27 1025 10 16.0934 0 0
1:15 am 01:15 Clear 61 16 61 16 100 100 Calm 30.27 1025 10 16.0934 0 0
1:35 am 01:35 Clear 61 16 61 16 100 100 Calm 30.27 1025 10 16.0934 0 0
1:55 am 01:55 Clear 61 16 61 16 100 100 Calm 30.27 1025 10 16.0934 0 0
2:15 am 02:15 Clear 61 16 61 16 100 100 Calm 30.27 1025 10 16.0934 0 0
2:35 am 02:35 Clear 61 16 61 16 100 100 Calm 30.27 1025 10 16.0934 0 0
2:55 am 02:55 Clear 61 16 59 15 94 94 Calm 30.27 1025 10 16.0934 0 0
3:15 am 03:15 Clear 61 16 61 16 100 100 ESE 6 9 30.24 1024 10 16.0934 0 0
3:35 am 03:35 Clear 61 16 61 16 100 100 Calm 30.27 1025 10 16.0934 0 0
3:55 am 03:55 Clear 59 15 59 15 100 100 Calm 30.27 1025 10 16.0934 0 0
4:15 am 04:15 Clear 59 15 59 15 100 100 NNW 3 6 30.27 1025 10 16.0934 0 0
4:35 am 04:35 Clear 59 15 59 15 100 100 Calm 30.27 1025 10 16.0934 0 0
4:55 am 04:55 Clear 59 15 59 15 100 100 Calm 30.27 1025 10 16.0934 0 0
5:15 am 05:15 Clear 61 16 61 16 100 100 Calm 30.27 1025 10 16.0934 0 0
5:35 am 05:35 Clear 59 15 59 15 100 100 Calm 30.27 1025 10 16.0934 0 0
5:55 am 05:55 Clear 59 15 59 15 100 100 Calm 30.27 1025 10 16.0934 0 0
6:15 am 06:15 Clear 59 15 59 15 100 100 NNW 5 7 30.27 1025 10 16.0934 0 0
6:35 am 06:35 Sunny 59 15 59 15 100 100 Calm 30.27 1025 10 16.0934 0 0
6:55 am 06:55 Sunny 59 15 59 15 100 100 Calm 30.27 1025 10 16.0934 0 0
7:15 am 07:15 Sunny with Nearby Thunderstorms 59 15 59 15 100 100 Calm 30.3 1026 10 16.0934 0 0
7:35 am 07:35 Sunny 59 15 59 15 100 100 Calm 30.3 1026 10 16.0934 0 0
7:55 am 07:55 Sunny 61 16 61 16 100 100 Calm 30.3 1026 10 16.0934 0 0
8:15 am 08:15 Sunny 63 17 61 16 94 94 Calm 30.3 1026 10 16.0934 0 0
8:35 am 08:35 Sunny 64 18 61 16 88 88 Calm 30.3 1026 10 16.0934 0 0
8:55 am 08:55 Sunny 64 18 63 17 94 94 Calm 30.3 1026 10 16.0934 0 0
9:15 am 09:15 Sunny 64 18 63 17 94 94 Calm 30.3 1026 10 16.0934 0 0
9:35 am 09:35 Sunny 66 19 63 17 88 88 Calm 30.3 1026 10 16.0934 0 0
9:55 am 09:55 Sunny 70 21 63 17 78 78 Calm 30.3 1026 10 16.0934 0 0
10:15 am 10:15 Sunny 72 22 64 18 78 78 SSE 3 6 30.3 1026 10 16.0934 0 0
10:35 am 10:35 Sunny 73 23 64 18 74 74 SSE 5 7 30.3 1026 10 16.0934 0 0
10:55 am 10:55 Sunny 75 24 63 17 65 65 S 5 7 30.3 1026 10 16.0934 0 0
11:15 am 11:15 Sunny 77 25 63 17 61 61 SSW 7 11 30.3 1026 10 16.0934 0 0
11:35 am 11:35 Partly Cloudy 79 26 61 16 54 54 S 10 17 30.27 1025 10 16.0934 0 0
11:55 am 11:55 Partly Cloudy 79 26 63 17 58 58 SSW 7 11 30.27 1025 10 16.0934 0 0
12:15 pm 12:15 Partly Cloudy 79 26 61 16 54 54 SSE 7 11 30.27 1025 10 16.0934 0 0
12:35 pm 12:35 Mostly Cloudy 79 26 61 16 54 54 S 3 6 30.27 1025 10 16.0934 0 0
12:55 pm 12:55 Partly Cloudy 81 27 61 16 51 51 S 9 15 30.27 1025 10 16.0934 0 0
1:15 pm 13:15 Partly Cloudy 81 27 61 16 51 51 S 7 11 30.27 1025 10 16.0934 0 0
1:35 pm 13:35 Sunny 81 27 63 17 54 54 S 3 6 30.27 1025 10 16.0934 0 0
1:55 pm 13:55 Sunny 82 28 61 16 48 48 SSW 3 6 30.27 1025 10 16.0934 0 0
2:15 pm 14:15 Sunny 82 28 61 16 48 48 WSW 5 7 30.27 1025 10 16.0934 0 0
2:35 pm 14:35 Partly Cloudy 81 27 61 16 51 51 WNW 3 6 30.27 1025 10 16.0934 0 0
2:55 pm 14:55 Mostly Cloudy 81 27 63 17 54 54 W 6 9 30.24 1024 10 16.0934 0 0
3:15 pm 15:15 Cloudy 82 28 61 16 48 48 S 7 11 30.24 1024 10 16.0934 0 0
3:35 pm 15:35 Mostly Cloudy 82 28 61 16 48 48 SSE 6 9 30.24 1024 10 16.0934 0 0
3:55 pm 15:55 Partly Cloudy 82 28 63 17 51 51 SW 6 9 30.24 1024 10 16.0934 0 0
4:15 pm 16:15 Sunny 82 28 63 17 51 51 WSW 5 7 30.24 1024 10 16.0934 0 0
4:35 pm 16:35 Sunny 82 28 61 16 48 48 S 3 6 30.21 1023 10 16.0934 0 0
4:55 pm 16:55 Sunny 82 28 61 16 48 48 S 6 9 30.21 1023 10 16.0934 0 0
5:15 pm 17:15 Sunny 81 27 63 17 54 54 S 3 6 30.21 1023 10 16.0934 0 0
5:35 pm 17:35 Partly Cloudy 82 28 63 17 51 51 SSW 6 9 30.21 1023 10 16.0934 0 0
5:55 pm 17:55 Sunny 81 27 63 17 54 54 S 8 13 30.21 1023 10 16.0934 0 0
6:15 pm 18:15 Sunny 81 27 64 18 58 58 SSW 3 6 30.21 1023 10 16.0934 0 0
6:35 pm 18:35 Sunny 81 27 64 18 58 58 SSW 3 6 30.21 1023 10 16.0934 0 0
6:55 pm 18:55 Sunny 79 26 64 18 61 61 SSW 3 6 30.21 1023 10 16.0934 0 0
7:15 pm 19:15 Sunny 79 26 64 18 61 61 SSW 5 7 30.21 1023 10 16.0934 0 0
7:35 pm 19:35 Sunny 77 25 64 18 65 65 S 6 9 30.18 1022 10 16.0934 0 0
7:55 pm 19:55 Clear 75 24 64 18 69 69 S 6 9 30.21 1023 10 16.0934 0 0
8:15 pm 20:15 Clear 73 23 64 18 74 74 S 5 7 30.21 1023 10 16.0934 0 0
8:35 pm 20:35 Clear 73 23 64 18 74 74 S 6 9 30.21 1023 10 16.0934 0 0
8:55 pm 20:55 Clear 72 22 64 18 78 78 S 5 7 30.21 1023 10 16.0934 0 0
9:15 pm 21:15 Clear 72 22 64 18 78 78 S 5 7 30.21 1023 10 16.0934 0 0
9:35 pm 21:35 Clear 70 21 64 18 83 83 Calm 30.21 1023 10 16.0934 0 0
9:55 pm 21:55 Clear 72 22 64 18 78 78 S 5 7 30.21 1023 10 16.0934 0 0
10:15 pm 22:15 Clear 68 20 64 18 88 88 WSW 3 6 30.24 1024 10 16.0934 0 0
10:35 pm 22:35 Clear 66 19 64 18 94 94 SSW 3 6 30.24 1024 10 16.0934 0 0
10:55 pm 22:55 Clear 68 20 64 18 88 88 SSW 5 7 30.24 1024 10 16.0934 0 0
11:15 pm 23:15 Clear 66 19 64 18 94 94 Calm 30.24 1024 10 16.0934 0 0
11:35 pm 23:35 Clear 64 18 64 18 100 100 Calm 30.24 1024 10 16.0934 0 0
11:55 pm 23:55 Clear 64 18 64 18 100 100 SW 3 6 30.24 1024 10 16.0934 0 0

Powered by AerisWeather